Content
SEND FEEDBACK

Daily
Averages
Monthly
Summary
Canada

STE. DOROTHEE, QUEBEC


Home > North America > Canada > Quebec
Elevation: 75 feet     Latitude: 45 31N     Longitude: 73 47W

WEATHER
 
SELECT A DAY
Number of Records: 197,834;   Date Range: 1/1/95 - 7/8/14
 
SHARE

PRINT THIS DATA

[ ← Previous Day ]
WEATHER ALMANAC - APRIL 26, 2013
[ Next Day → ]
[ °C ]   °F
Weather ElementAverageHighLow
Temperature44.3 °F51.8 °F (5:00 pm)37.4 °F (6:00 am)
Dewpoint32 °F37.4 °F (3:00 pm)26.6 °F (2:00 am)
Humidity60.7 %71 % (12:00 pm)41 % (8:00 pm)
Barometer30.41 in30.47 in (11:00 am)30.30 in (1:00 am)
Wind Speed5.2 mph9.2 mph (10:15 am)
Weather ElementAverage
Visibility15.7 mi
Wind DirectionSSW (199 °)

Weather ElementTotal
Precipitation---
Heating Degree Days20.4 (Base 65)
Averaged from 30 records on April 26, 2013
WEATHER CONDITIONS BREAKOUT
WIND DIRECTION BREAKOUT
WEATHER BY HOUR - APRIL 26, 2013
[ °C ]   °F
Local TimeTemperatureDewpointHumidityBarometerVisibilityWind DirectionWind SpeedGust SpeedPrecipitationEventsConditions
1:00 AM42.8 °F28.4 °F57 %30.30 in15.0 miESE (120°)5.8 mphMostly Cloudy
2:00 AM41.0 °F27.0 °F46 %30.30 in15.0 miSE (140°)1.2 mphClear
2:00 AM41.0 °F26.6 °F57 %30.30 in15.0 miCalmScattered Clouds
3:00 AM39.2 °F28.4 °F65 %30.31 in15.0 miNorth (10°)4.6 mphMostly Cloudy
4:00 AM39.2 °F30.2 °F70 %30.32 in15.0 miNorth (10°)3.5 mphMostly Cloudy
5:00 AM39.2 °F30.2 °F70 %30.34 in15.0 miNW (320°)4.6 mphMostly Cloudy
6:00 AM37.4 °F28.4 °F70 %30.35 in15.0 miNorth (350°)5.8 mphMostly Cloudy
7:00 AM39.2 °F28.4 °F65 %30.39 in15.0 miNNW (340°)5.8 mphOvercast
8:00 AM41.0 °F28.0 °F47 %30.41 in15.0 miNNW (330°)3.5 mphOvercast
8:00 AM41.0 °F28.4 °F61 %30.41 in15.0 miWest (270°)5.8 mphOvercast
9:00 AM41.0 °F28.4 °F61 %30.45 in15.0 miWNW (300°)6.9 mphOvercast
9:23 AM41.0 °F28.4 °F61 %30.45 in12.0 miNW (310°)6.9 mphRainLight Rain Showers
10:00 AM41.0 °F32.0 °F70 %30.45 in15.0 miNorth (10°)8.1 mphOvercast
10:15 AM41.0 °F32.0 °F70 %30.45 in12.0 miNorth (360°)9.2 mphRainLight Rain Showers
11:00 AM42.8 °F33.8 °F70 %30.47 in15.0 miNNE (30°)6.9 mphRainLight Rain Showers
11:38 AM44.6 °F33.8 °F66 %30.47 in15.0 miWNW (300°)2.3 mphOvercast
12:00 PM44.6 °F35.6 °F71 %30.47 in15.0 miWSW (240°)4.6 mphOvercast
1:00 PM46.4 °F35.6 °F66 %30.46 in15.0 miSW (220°)6.9 mphMostly Cloudy
2:00 PM49.0 °F36.0 °F51 %30.46 in15.0 miSouth (190°)9.2 mphPartly Cloudy
2:00 PM50.0 °F35.6 °F58 %30.45 in15.0 miSouth (180°)9.2 mphMostly Cloudy
3:00 PM50.0 °F37.4 °F62 %30.45 in15.0 miSSW (210°)9.2 mphMostly Cloudy
4:00 PM48.2 °F35.6 °F62 %30.45 in15.0 miWSW (240°)4.6 mphScattered Clouds
5:00 PM51.8 °F35.6 °F54 %30.43 in15.0 miSW (220°)4.6 mphScattered Clouds
6:00 PM51.8 °F35.6 °F54 %30.43 in15.0 miSSW (200°)6.9 mphScattered Clouds
7:00 PM50.0 °F33.8 °F54 %30.43 in15.0 miSSW (210°)6.9 mphClear
8:00 PM49.0 °F33.0 °F41 %30.44 in28.0 miSW (230°)3.5 mphClear
8:00 PM48.2 °F32.0 °F54 %30.43 in30.0 miWSW (250°)2.3 mphPartly Cloudy
9:00 PM46.4 °F32.0 °F57 %30.45 in15.0 miWSW (250°)2.3 mphClear
10:00 PM44.6 °F33.8 °F66 %30.45 in15.0 miCalmClear
11:00 PM46.4 °F35.6 °F66 %30.45 in15.0 miSE (130°)4.6 mphClear
Hourly data recorded from CYUL, located miles away from Ste. Dorothee, Quebec







STORIES FROM OUR PARTNERS